Location: Bottens
(46.6171°N, 6.6605°E)
Time: 14:59:39
(UTC+00:00)

Cosmos 2098 Rocket - Pass Details

Date: 20 June 2021
Orbit: 366 x 1176 km, 82.9° (Epoch: 01 August)

Event Time Altitude Azimuth Distance (km) Brightness Sun altitude
Exits shadow 01:14:08 27° 203° (SSW) 1,505 4.4 -16.4°
Maximum altitude 01:17:04 67° 279° (W) 796 3.5 -16.2°
Drops below altitude 10° 01:21:30 10° 3° (N) 2,000 6.8 -15.9°
Sets 01:23:30 0° 6° (N) 2,796 7.8 -15.8°
